Current Weather Conditions: station 62129

sailwx.info

Wind from 280 at 18 knots

Air temperature 10.7° C
Dewpoint 6.6° C

Last reported at 2019-Sep-16 02:00 UTC.
Time now 2019-Sep-16 02:47 UTC

Location: N 58°24' E 000°18'.
View on Google Maps.

See reports from other nearby stations

  
Tides and Currents Weather Stations Pressure Air Temp Water Temp Dewpoint Dewpoint Depression Visibility Wind Speed Wind Dir Waves Ship Positions
date/time (UTC)wind fromknots sea level pressurealtimeterstation pressurevisibilityair tempwater tempwave heightnotes
2019-Sep-16 02:00 280 18 10.7
2019-Sep-16 01:00 290 15 11.0
2019-Sep-16 00:00 300 14 11.0
2019-Sep-15 23:00 300 18 11.0
2019-Sep-15 22:00 300 21 11.1
2019-Sep-15 21:00 300 25 11.1
2019-Sep-15 20:00 300 21 11.0
2019-Sep-15 19:00 300 22 11.3
2019-Sep-15 18:00 300 26 11.4
2019-Sep-15 17:00 300 22 11.4
2019-Sep-15 16:00 300 27 11.2
2019-Sep-15 15:00 300 27 11.4
2019-Sep-15 14:00 290 28 11.7
2019-Sep-15 13:00 290 29 11.7
2019-Sep-15 12:00 290 33 11.0
2019-Sep-15 11:00 300 34 11.4
2019-Sep-15 10:00 280 33 11.5
2019-Sep-15 09:00 290 34 11.3
2019-Sep-15 08:00 290 36 11.4
2019-Sep-15 07:00 280 38 11.8
2019-Sep-15 06:00 280 35 11.3
2019-Sep-15 05:00 280 35 11.5
2019-Sep-15 04:00 270 32 11.7
2019-Sep-15 03:00 270 36 12.0
2019-Sep-15 02:00 280 27 11.5
2019-Sep-15 01:00 260 29 12.4
2019-Sep-15 00:00 260 26 12.4
2019-Sep-14 23:00 260 27 12.7
2019-Sep-14 22:00 260 22 12.7
2019-Sep-14 21:00 260 26 13.3
2019-Sep-14 20:00 250 29 13.4
2019-Sep-14 19:00 240 31 14.0
2019-Sep-14 18:00 230 33 14.0
2019-Sep-14 17:00 230 34 13.6
2019-Sep-14 16:00 230 34 13.6
2019-Sep-14 15:00 220 36 13.3
2019-Sep-14 14:00 220 35 13.0
2019-Sep-14 13:00 220 35 12.5
2019-Sep-14 12:00 220 34 12.1
2019-Sep-14 11:00 220 31 11.8
2019-Sep-14 10:00 220 27 11.9
2019-Sep-14 09:00 220 22 12.2
2019-Sep-14 08:00 210 20 12.2
2019-Sep-14 07:00 220 17 12.2
2019-Sep-14 06:00 230 17 12.4
2019-Sep-14 05:00 240 17 12.7
2019-Sep-14 04:00 240 18 12.8
2019-Sep-14 03:00 240 20 12.6
2019-Sep-14 02:00 250 20 12.4